{"data":{"norad_id":60417,"epoch":"2026-05-25T00:28:41.185632Z","epoch_age_seconds":69239,"freshness":"FRESH","line1":"1 60417U 24141V   26145.01992113  .00002273  00000+0  78397-4 0  9995","line2":"2 60417  53.1594 247.5786 0001138  81.2473 278.8658 15.34394111101271","mean_motion":15.34394111,"eccentricity":0.0001138,"inclination_deg":53.1594,"raan_deg":247.5786,"arg_perigee_deg":81.2473,"mean_anomaly_deg":278.8658,"bstar":7.8397e-5,"rev_number":10127,"period_min":93.848118268749,"perigee_km":461.94225400091,"apogee_km":463.49923322336,"semimajor_km":6840.8577436121,"source":"CELESTRAK","updated_at":"2026-05-25T13:38:19.271505Z"}}